User: anonymous   Login
Location: Unspecified
(0.0000°N, 0.0000°E)
Time: 19:58:53
(UTC+00:00)
Language:

UWE-3 - Orbit

View from above orbital plane
View from above orbital plane
View from above satellite
View from above satellite

Ground track
Ground track

The orbit data is extracted from the following two-line orbital elements,

1 39446U 13066AG  17269.15604633  .00000307  00000-0  47931-4 0  9993
2 39446  97.6200 300.3364 0069311 317.4513  42.1339 14.78047225206117
Epoch (UTC): 26 September 2017 03:44:42
Eccentricity: 0.0069311
inclination: 97.6200°
perigee height: 587 km
apogee height: 684 km
right ascension of ascending node: 300.3364°
argument of perigee: 317.4513°
revolutions per day: 14.78047225
mean anomaly at epoch: 42.1339°
orbit number at epoch: 20611

The dashed part of the orbit path shows where the satellite is in the earth's shadow,  

DLR